Home > Weather > Reykjavik > Past weeks

Flag for Iceland Past Weather in Reykjavik, Iceland — Yesterday and Last 2 Weeks

Now
54 °F

Light rain. Passing clouds.


Feels Like: 52 °F
Forecast: 53 / 58 °F
Wind: 6 mph from South

Location: Reykjavik Airport

Current Time: Jul 25, 2016 at 12:29:53 AM

Latest Report: Jul 25, 2016 at 12:00 AM


Visibility: N/A

Pressure: 29.86 "Hg

Humidity: 94%

Dew Point: 52 °F

Location of ReykjavikLocation

Past Weather in Reykjavik — Graph

°F

Reykjavik Temperature Yesterday

Maximum temperature yesterday: 57 °F (at 1:00 PM)
Minimum temperature yesterday: 52 °F (at 1:00 AM)
Average temperature yesterday: 54 °F

High & Low Weather Summary for the Past Weeks

 TemperatureHumidityPressure
High63 °F (Jul 20, 5:00 PM)94% (Jul 20, 4:00 AM)30.04 "Hg (Jul 20, 4:00 AM)
Low45 °F (Jul 10, 1:00 AM)45% (Jul 12, 6:00 PM)29.45 "Hg (Jul 15, 12:00 PM)
Average54 °F74%29.78 "Hg
* Reported Jul 9 11:00 PM — Jul 24 11:00 PM, Reykjavik, Weather by CustomWeather, © 2016

Note: Actual official high and low records may vary slightly from our data, if they occured in-between our weather recording intervals... More about our weather records

Advertising

Reykjavik Weather History for the Previous 24 Hours

Scroll right to see more
 ConditionsComfort  
Time TempWeatherWind HumidityBarometerVisibility
11:00 PM
Sun, Jul 24
55 °FLight rain. Partly cloudy.3 mph88%29.86 "HgN/A
10:00 PM55 °FLight rain. Broken clouds.9 mph88%29.86 "HgN/A
9:00 PM54 °FLight rain. Broken clouds.10 mph94%29.86 "HgN/A
8:00 PM55 °FLight rain. Broken clouds.12 mph88%29.86 "HgN/A
7:00 PM54 °FDrizzle. Mostly cloudy.10 mph88%29.86 "Hg6 mi
6:00 PM55 °FLight rain. Mostly cloudy.10 mph88%29.86 "HgN/A
5:00 PM55 °FLight rain. More clouds than sun.9 mph88%29.86 "HgN/A
4:00 PM55 °FLight rain. Broken clouds.8 mph82%29.86 "HgN/A
3:00 PM55 °FLight rain. Overcast.9 mph82%29.86 "HgN/A
2:00 PM55 °FLight rain. Broken clouds.10 mph82%29.86 "HgN/A
1:00 PM57 °FPartly sunny.9 mph77%29.83 "HgN/A
12:00 PM55 °FPartly sunny.7 mph82%29.83 "HgN/A
11:00 AM55 °FBroken clouds.6 mph82%29.83 "HgN/A
10:00 AM54 °FBroken clouds.5 mph88%29.83 "HgN/A
9:00 AM54 °FMostly cloudy.5 mph88%29.83 "HgN/A
8:00 AM52 °FScattered showers. More clouds than sun.2 mph94%29.83 "HgN/A
7:00 AM52 °FPartly sunny.3 mph94%29.80 "HgN/A
6:00 AM52 °FLight rain. More clouds than sun.3 mph94%29.80 "HgN/A
5:00 AM52 °FBroken clouds.2 mph94%29.80 "HgN/A
4:00 AM52 °FPartly cloudy.2 mph94%29.80 "HgN/A
3:00 AM52 °FPartly cloudy.No wind94%29.80 "HgN/A
2:00 AM52 °FPartly cloudy.No wind94%29.80 "HgN/A
1:00 AM52 °FPartly cloudy.No wind94%29.80 "HgN/A
12:00 AM54 °FPartly cloudy.1 mph88%29.80 "HgN/A
Weather by CustomWeather, © 2016

See weather overviewHow to use our weather pages